AE6EO Weather Reports


time (UTC)temp
C
wind
direction
speed
KPH
gust
KPH
rain 1hr
cm
rain 24hr
cm
rain mn
cm
humidity
%
barometer
mb
20260503192516 17 209 1.6 9.7 0.00 0.00 0.00 59 1013.8
20260503191536 17 293 4.8 12.9 0.00 0.00 0.00 59 1013.8
20260503190514 17 113 3.2 6.4 0.00 0.00 0.00 57 1013.9
20260503185517 17 231 1.6 8.0 0.00 0.00 0.00 59 1013.9
20260503184536 17 197 1.6 8.0 0.00 0.00 0.00 59 1013.9
20260503183535 16 212 1.6 6.4 0.00 0.00 0.00 60 1014.0
20260503182517 16 206 3.2 12.9 0.00 0.00 0.00 61 1014.0
20260503181516 16 261 1.6 8.0 0.00 0.00 0.00 62 1014.0
20260503180515 16 275 3.2 8.0 0.00 0.00 0.00 64 1014.0
20260503175517 16 246 1.6 6.4 0.00 0.00 0.00 65 1014.0
20260503174516 16 200 3.2 11.3 0.00 0.00 0.00 67 1014.0
20260503173518 15 205 1.6 8.0 0.00 0.00 0.00 69 1014.0
20260503172518 15 249 3.2 12.9 0.00 0.00 0.00 69 1014.1
20260503171516 15 240 1.6 6.4 0.00 0.00 0.00 70 1014.1
20260503170515 15 280 1.6 6.4 0.00 0.00 0.00 71 1014.1
20260503150517 13 270 1.6 4.8 0.00 0.00 0.00 76 1013.6
20260503130515 13 330 0.0 3.2 0.00 0.00 0.00 79 1012.3
20260503110516 13 191 1.6 6.4 0.00 0.00 0.00 76 1012.3
20260503081515 13 177 0.0 1.6 0.00 0.00 0.00 75 1012.9
20260503080537 13 235 1.6 3.2 0.00 0.00 0.00 75 1012.9
20260503072517 13 229 0.0 3.2 0.00 0.00 0.00 76 1013.1
20260503071516 13 297 0.0 3.2 0.00 0.00 0.00 76 1013.1
20260503070535 13 298 1.6 3.2 0.00 0.00 0.00 76 1013.0
20260503054637 13 295 1.6 3.2 0.00 0.00 0.00 75 1013.4
20260503053516 13 303 0.0 3.2 0.00 0.00 0.00 74 1013.4
20260503052515 13 282 1.6 4.8 0.00 0.00 0.00 74 1013.5
20260503051517 13 269 1.6 3.2 0.00 0.00 0.00 74 1013.5
20260503050539 13 3 1.6 3.2 0.00 0.00 0.00 74 1013.4
20260503045516 13 3 3.2 4.8 0.00 0.00 0.00 74 1013.4
20260503044517 13 3 3.2 6.4 0.00 0.00 0.00 73 1013.3
20260503043516 13 3 3.2 11.3 0.00 0.00 0.00 73 1013.2
20260503042515 13 355 3.2 11.3 0.00 0.00 0.00 74 1013.1
20260503041517 13 341 3.2 11.3 0.00 0.00 0.00 74 1013.1
20260503040516 13 348 3.2 6.4 0.00 0.00 0.00 74 1013.0
20260503035516 13 341 3.2 6.4 0.00 0.00 0.00 73 1012.9
20260503034515 14 355 4.8 14.5 0.00 0.00 0.00 73 1012.9
20260503033516 14 3 1.6 4.8 0.00 0.00 0.00 73 1012.7
20260503032516 14 1 4.8 11.3 0.00 0.00 0.00 73 1012.7
20260503031515 14 5 3.2 8.0 0.00 0.00 0.00 72 1012.5
20260503030517 15 359 3.2 6.4 0.00 0.00 0.00 71 1012.4
20260503025516 15 359 3.2 11.3 0.00 0.00 0.00 70 1012.2
20260503024535 15 350 4.8 14.5 0.00 0.00 0.00 69 1012.1
20260503023517 15 358 3.2 11.3 0.00 0.00 0.00 68 1012.0
20260503022516 15 312 1.6 4.8 0.00 0.00 0.00 69 1011.9
20260503021515 16 268 1.6 9.7 0.00 0.00 0.00 69 1011.9
20260503020518 16 230 1.6 4.8 0.00 0.00 0.00 68 1012.0
20260503015516 16 246 3.2 8.0 0.00 0.00 0.00 67 1012.0
20260503014515 16 283 3.2 9.7 0.00 0.00 0.00 68 1012.0
20260503013515 17 276 3.2 9.7 0.00 0.00 0.00 67 1012.0
20260503012517 17 216 3.2 9.7 0.00 0.00 0.00 67 1012.0
20260503011516 17 226 4.8 16.1 0.00 0.00 0.00 66 1011.9
20260503010555 17 248 3.2 14.5 0.00 0.00 0.00 65 1011.9
20260503005617 18 227 3.2 14.5 0.00 0.00 0.00 65 1011.9
20260503003515 18 259 3.2 12.9 0.00 0.00 0.00 64 1011.9
20260503002517 18 243 3.2 9.7 0.00 0.00 0.00 63 1012.0
20260503001517 18 227 3.2 12.9 0.00 0.00 0.00 63 1012.0
20260503000515 19 281 3.2 12.9 0.00 0.00 0.00 61 1012.1
20260502235515 20 288 4.8 11.3 0.00 0.00 0.00 60 1012.1
20260502234517 19 232 1.6 6.4 0.00 0.00 0.00 62 1012.1
20260502233536 18 291 4.8 11.3 0.00 0.00 0.00 62 1012.2
20260502232515 18 325 4.8 12.9 0.00 0.00 0.00 62 1012.3
20260502231517 19 295 4.8 14.5 0.00 0.00 0.00 62 1012.4
20260502230516 19 331 6.4 14.5 0.00 0.00 0.00 62 1012.6
20260502225515 18 333 4.8 14.5 0.00 0.00 0.00 62 1012.7
20260502224518 18 349 6.4 16.1 0.00 0.00 0.00 62 1012.8
20260502223516 18 318 4.8 12.9 0.00 0.00 0.00 62 1012.9
20260502222515 18 353 6.4 14.5 0.00 0.00 0.00 63 1013.0
20260502221538 18 327 4.8 9.7 0.00 0.00 0.00 64 1013.3
20260502220516 18 2 6.4 17.7 0.00 0.00 0.00 63 1013.4
20260502215536 18 41 6.4 16.1 0.00 0.00 0.00 64 1013.5
20260502214515 18 343 3.2 9.7 0.00 0.00 0.00 64 1013.6
20260502213517 18 354 3.2 8.0 0.00 0.00 0.00 64 1013.6
20260502212516 18 305 4.8 9.7 0.00 0.00 0.00 64 1013.7
20260502205516 19 248 3.2 14.5 0.00 0.00 0.00 64 1014.0
20260502204535 18 254 3.2 11.3 0.00 0.00 0.00 66 1014.2
20260502203515 18 300 4.8 14.5 0.00 0.00 0.00 64 1014.3
20260502202517 19 273 3.2 8.0 0.00 0.00 0.00 64 1014.3
20260502201516 19 243 3.2 9.7 0.00 0.00 0.00 64 1014.5
20260502200515 18 258 3.2 9.7 0.00 0.00 0.00 65 1014.5
20260502195557 18 264 3.2 11.3 0.00 0.00 0.00 66 1014.7
20260502194522 18 260 3.2 8.0 0.00 0.00 0.00 67 1014.8
20260502193515 18 270 4.8 12.9 0.00 0.00 0.00 67 1014.8